EW8714 Weather Reports


Display with metric or nautical units.
time (UTC)temp
F
wind
direction
speed
MPH
gust
MPH
rain 1hr
in
rain 24hr
in
rain mn
in
humidity
%
barometer
mb
20260906040005 74 4 1.0 3.0 0.00 0.00 0.00 40 1018.5
20260906035504 74 2 0.0 2.0 0.00 0.00 0.00 40 1018.4
20260906035005 75 2 0.0 3.0 0.00 0.00 0.00 39 1018.4
20260906034524 75 2 0.0 3.0 0.00 0.00 0.00 39 1018.3
20260906034025 75 2 0.0 4.0 0.00 0.00 0.00 39 1018.3
20260906033523 75 2 1.0 4.0 0.00 0.00 0.00 38 1018.3
20260906033025 75 4 0.0 2.0 0.00 0.00 0.00 38 1018.2
20260906032525 76 4 0.0 3.0 0.00 0.00 0.00 38 1018.1
20260906032025 76 4 0.0 3.0 0.00 0.00 0.00 37 1018.0
20260906031525 76 4 1.0 4.0 0.00 0.00 0.00 37 1017.9
20260906031025 76 4 1.0 5.0 0.00 0.00 0.00 36 1017.9
20260906030527 76 3 2.0 5.0 0.00 0.00 0.00 36 1017.9
20260906030032 77 315 0.0 3.0 0.00 0.00 0.00 35 1017.6
20260906025524 77 314 1.0 3.0 0.00 0.00 0.00 34 1017.5
20260906025024 78 314 0.0 4.0 0.00 0.00 0.00 34 1017.5
20260906024500 78 314 1.0 4.0 0.00 0.00 0.00 34 1017.4
20260906024100 78 308 1.0 7.0 0.00 0.00 0.00 34 1017.5
20260906023601 79 303 2.0 7.0 0.00 0.00 0.00 33 1017.5
20260906023026 79 285 4.0 8.0 0.00 0.00 0.00 33 1017.3
20260906022524 79 288 4.0 8.0 0.00 0.00 0.00 32 1017.3
20260906022025 79 288 6.0 8.0 0.00 0.00 0.00 32 1017.3
20260906021524 80 289 3.0 8.0 0.00 0.00 0.00 31 1017.3
20260906021023 80 291 4.0 7.0 0.00 0.00 0.00 31 1017.3
20260906020523 80 297 3.0 7.0 0.00 0.00 0.00 31 1017.2
20260906020005 81 290 4.0 7.0 0.00 0.00 0.00 31 1017.1
20260906015505 81 325 3.0 7.0 0.00 0.00 0.00 30 1017.1
20260906015005 81 326 4.0 0.0 0.00 0.00 0.00 29 1017.0
20260906014515 82 306 3.0 8.0 0.00 0.00 0.00 29 1016.9
20260906014004 82 309 4.0 9.0 0.00 0.00 0.00 29 1016.8
20260906013504 83 302 4.0 10.0 0.00 0.00 0.00 28 1016.8
20260906013026 83 307 5.0 10.0 0.00 0.00 0.00 27 1016.8
20260906012627 83 319 4.0 8.0 0.00 0.00 0.00 27 1016.7
20260906012024 84 299 4.0 7.0 0.00 0.00 0.00 27 1016.6
20260906011507 84 300 3.0 7.0 0.00 0.00 0.00 26 1016.6
20260906011008 84 288 3.0 8.0 0.00 0.00 0.00 26 1016.6
20260906010506 85 302 3.0 8.0 0.00 0.00 0.00 26 1016.6
20260906010015 85 304 3.0 10.0 0.00 0.00 0.00 26 1016.6
20260906005504 86 308 5.0 10.0 0.00 0.00 0.00 25 1016.6
20260906005007 86 283 4.0 10.0 0.00 0.00 0.00 25 1016.6
20260906004507 87 297 4.0 10.0 0.00 0.00 0.00 23 1016.6
20260906004006 88 283 5.0 9.0 0.00 0.00 0.00 22 1016.6
20260906003506 89 313 3.0 7.0 0.00 0.00 0.00 21 1016.6
20260906003010 90 343 2.0 5.0 0.00 0.00 0.00 21 1016.6
20260906002509 90 346 2.0 6.0 0.00 0.00 0.00 20 1016.5
20260906002009 92 345 3.0 6.0 0.00 0.00 0.00 20 1016.4
20260906001538 92 354 3.0 7.0 0.00 0.00 0.00 19 1016.5
20260906001029 92 355 2.0 7.0 0.00 0.00 0.00 19 1016.4
20260906000524 92 299 1.0 6.0 0.00 0.00 0.00 19 1016.4
20260906000007 93 282 1.0 6.0 0.00 0.00 0.00 19 1016.3
20260905235507 92 264 2.0 5.0 0.00 0.00 0.00 19 1016.3
20260905235011 92 265 3.0 5.0 0.00 0.00 0.00 19 1016.3
20260905234507 92 255 2.0 5.0 0.00 0.00 0.00 19 1016.3
20260905234010 93 293 0.0 5.0 0.00 0.00 0.00 18 1016.3
20260905233510 94 286 2.0 5.0 0.00 0.00 0.00 19 1016.2
20260905233007 95 266 2.0 4.0 0.00 0.00 0.00 18 1016.3
20260905232506 95 342 1.0 5.0 0.00 0.00 0.00 18 1016.3
20260905232006 95 338 1.0 5.0 0.00 0.00 0.00 19 1016.3
20260905231509 95 301 1.0 3.0 0.00 0.00 0.00 17 1016.3
20260905231011 95 298 1.0 4.0 0.00 0.00 0.00 18 1016.2
20260905230509 95 293 1.0 4.0 0.00 0.00 0.00 18 1016.2
20260905230007 95 293 1.0 5.0 0.00 0.00 0.00 17 1016.1
20260905225507 95 295 1.0 5.0 0.00 0.00 0.00 17 1016.1
20260905225007 95 298 2.0 5.0 0.00 0.00 0.00 17 1016.1
20260905224512 95 300 0.0 5.0 0.00 0.00 0.00 17 1016.1
20260905224014 94 300 0.0 5.0 0.00 0.00 0.00 18 1016.1
20260905223510 94 52 2.0 5.0 0.00 0.00 0.00 18 1016.2
20260905223019 94 58 1.0 4.0 0.00 0.00 0.00 18 1016.2
20260905222510 93 60 1.0 4.0 0.00 0.00 0.00 18 1016.2
20260905222009 94 60 2.0 6.0 0.00 0.00 0.00 19 1016.2
20260905221510 94 60 2.0 5.0 0.00 0.00 0.00 18 1016.3
20260905221011 94 60 2.0 4.0 0.00 0.00 0.00 17 1016.3
20260905220508 94 56 1.0 5.0 0.00 0.00 0.00 18 1016.3
20260905220011 93 58 3.0 9.0 0.00 0.00 0.00 17 1016.4
20260905215514 94 64 5.0 9.0 0.00 0.00 0.00 17 1016.5
20260905215015 94 46 3.0 22.0 0.00 0.00 0.00 18 1016.5
20260905214509 94 34 4.0 22.0 0.00 0.00 0.00 18 1016.6
20260905214007 94 65 2.0 9.0 0.00 0.00 0.00 19 1016.7
20260905213507 93 61 3.0 9.0 0.00 0.00 0.00 19 1016.7
20260905213018 94 108 4.0 7.0 0.00 0.00 0.00 19 1016.7
20260905212512 94 39 4.0 7.0 0.00 0.00 0.00 18 1016.8
20260905212011 95 328 1.0 6.0 0.00 0.00 0.00 18 1016.8
20260905211532 95 273 2.0 6.0 0.00 0.00 0.00 18 1016.9
20260905211010 94 332 1.0 7.0 0.00 0.00 0.00 19 1017.0
20260905210510 94 305 2.0 7.0 0.00 0.00 0.00 18 1017.0
20260905210012 94 44 2.0 7.0 0.00 0.00 0.00 19 1017.1
20260905205509 95 51 2.0 8.0 0.00 0.00 0.00 19 1017.2
20260905205009 94 43 3.0 12.0 0.00 0.00 0.00 19 1017.2
20260905204522 94 30 4.0 12.0 0.00 0.00 0.00 20 1017.3
20260905204013 94 15 2.0 8.0 0.00 0.00 0.00 19 1017.3
20260905203512 94 7 3.0 8.0 0.00 0.00 0.00 18 1017.3
20260905203020 94 360 3.0 7.0 0.00 0.00 0.00 19 1017.5
20260905202516 93 25 1.0 8.0 0.00 0.00 0.00 19 1017.5
20260905202012 93 2 2.0 9.0 0.00 0.00 0.00 18 1017.6
20260905201521 92 52 5.0 10.0 0.00 0.00 0.00 21 1017.6
20260905201012 93 78 3.0 10.0 0.00 0.00 0.00 19 1017.6
20260905200513 93 58 3.0 10.0 0.00 0.00 0.00 19 1017.6
20260905200015 93 66 5.0 10.0 0.00 0.00 0.00 19 1017.6
20260905195514 93 56 3.0 13.0 0.00 0.00 0.00 20 1017.7
20260905195016 93 82 4.0 13.0 0.00 0.00 0.00 20 1017.8
20260905194518 93 35 4.0 9.0 0.00 0.00 0.00 19 1017.9
20260905194012 92 53 3.0 12.0 0.00 0.00 0.00 19 1017.9
20260905193511 92 95 5.0 12.0 0.00 0.00 0.00 20 1018.0
20260905193021 94 49 5.0 10.0 0.00 0.00 0.00 19 1018.1
20260905192518 92 57 5.0 10.0 0.00 0.00 0.00 20 1018.0
20260905192014 93 35 2.0 9.0 0.00 0.00 0.00 20 1018.1
20260905191524 93 37 2.0 10.0 0.00 0.00 0.00 20 1018.2
20260905191016 92 60 3.0 12.0 0.00 0.00 0.00 20 1018.2
20260905190513 91 17 5.0 12.0 0.00 0.00 0.00 21 1018.2
20260905190012 90 58 2.0 11.0 0.00 0.00 0.00 21 1018.2
20260905185511 91 11 5.0 11.0 0.00 0.00 0.00 20 1018.4
20260905185011 91 42 4.0 9.0 0.00 0.00 0.00 20 1018.4
20260905184515 91 45 4.0 8.0 0.00 0.00 0.00 21 1018.5
20260905184013 90 82 2.0 7.0 0.00 0.00 0.00 21 1018.5
20260905183514 90 40 2.0 8.0 0.00 0.00 0.00 23 1018.5
20260905183012 89 53 4.0 8.0 0.00 0.00 0.00 24 1018.6
20260905182515 88 79 1.0 8.0 0.00 0.00 0.00 23 1018.7
20260905182012 89 90 3.0 8.0 0.00 0.00 0.00 23 1018.9
20260905181517 89 46 4.0 12.0 0.00 0.00 0.00 23 1018.9
20260905181017 89 34 3.0 12.0 0.00 0.00 0.00 23 1019.0
20260905180516 89 92 4.0 9.0 0.00 0.00 0.00 24 1019.0
20260905180013 88 105 5.0 9.0 0.00 0.00 0.00 23 1019.1
20260905175512 88 87 1.0 5.0 0.00 0.00 0.00 24 1019.2
20260905175011 88 86 1.0 5.0 0.00 0.00 0.00 25 1019.2
20260905174515 87 62 2.0 6.0 0.00 0.00 0.00 26 1019.2
20260905174012 86 56 2.0 8.0 0.00 0.00 0.00 26 1019.3
20260905173512 85 46 3.0 8.0 0.00 0.00 0.00 28 1019.3
20260905173017 85 95 2.0 6.0 0.00 0.00 0.00 30 1019.2
20260905172515 86 101 2.0 5.0 0.00 0.00 0.00 28 1019.1
20260905172017 84 102 3.0 5.0 0.00 0.00 0.00 29 1019.2
20260905171520 85 101 2.0 5.0 0.00 0.00 0.00 28 1019.3
20260905171016 85 97 2.0 6.0 0.00 0.00 0.00 28 1019.2
20260905170516 85 98 2.0 6.0 0.00 0.00 0.00 28 1019.2
20260905170016 84 88 3.0 5.0 0.00 0.00 0.00 28 1019.2
20260905165514 84 87 2.0 7.0 0.00 0.00 0.00 30 1019.2
20260905165015 83 101 4.0 7.0 0.00 0.00 0.00 30 1019.3
20260905164604 83 86 2.0 5.0 0.00 0.00 0.00 32 1019.3
20260905164057 83 86 1.0 5.0 0.00 0.00 0.00 31 1019.4
20260905163556 83 94 2.0 5.0 0.00 0.00 0.00 30 1019.3
20260905163010 82 86 3.0 5.0 0.00 0.00 0.00 32 1019.3
20260905162508 82 83 2.0 5.0 0.00 0.00 0.00 34 1019.2
20260905162007 81 90 3.0 6.0 0.00 0.00 0.00 32 1019.2
20260905161508 81 94 3.0 7.0 0.00 0.00 0.00 34 1019.3
20260905161008 81 91 3.0 7.0 0.00 0.00 0.00 34 1019.2
20260905160508 81 68 1.0 6.0 0.00 0.00 0.00 33 1019.2
20260905160009 80 77 2.0 6.0 0.00 0.00 0.00 36 1019.2
20260905155508 80 75 2.0 6.0 0.00 0.00 0.00 34 1019.2
20260905155008 80 76 3.0 6.0 0.00 0.00 0.00 33 1019.2
20260905154509 79 85 2.0 5.0 0.00 0.00 0.00 38 1019.3
20260905154005 78 84 0.0 4.0 0.00 0.00 0.00 35 1019.2
20260905153505 78 84 2.0 6.0 0.00 0.00 0.00 35 1019.3
20260905153012 78 82 2.0 6.0 0.00 0.00 0.00 36 1019.3
20260905152507 78 104 2.0 5.0 0.00 0.00 0.00 37 1019.3
20260905152007 79 131 2.0 5.0 0.00 0.00 0.00 36 1019.3
20260905151514 79 146 2.0 4.0 0.00 0.00 0.00 36 1019.3
20260905151008 79 147 1.0 4.0 0.00 0.00 0.00 34 1019.3
20260905150511 78 148 0.0 4.0 0.00 0.00 0.00 34 1019.2
20260905150026 78 148 1.0 4.0 0.00 0.00 0.00 36 1019.2
20260905145526 78 148 2.0 4.0 0.00 0.00 0.00 37 1019.2
20260905145025 79 217 1.0 3.0 0.00 0.00 0.00 36 1019.1
20260905144517 78 218 1.0 3.0 0.00 0.00 0.00 35 1019.1
20260905144009 78 220 0.0 3.0 0.00 0.00 0.00 34 1019.2
20260905143508 77 220 0.0 3.0 0.00 0.00 0.00 35 1019.2
20260905143008 77 222 1.0 2.0 0.00 0.00 0.00 35 1019.1
20260905142504 75 222 0.0 1.0 0.00 0.00 0.00 38 1019.0
20260905142004 74 222 0.0 2.0 0.00 0.00 0.00 37 1019.0
20260905141510 74 222 0.0 2.0 0.00 0.00 0.00 39 1019.0
20260905141011 73 223 0.0 1.0 0.00 0.00 0.00 41 1018.9
20260905140509 72 223 0.0 1.0 0.00 0.00 0.00 39 1018.8
20260905140009 72 223 0.0 1.0 0.00 0.00 0.00 41 1018.8
20260905135507 71 223 0.0 2.0 0.00 0.00 0.00 43 1018.8
20260905135008 70 223 0.0 2.0 0.00 0.00 0.00 49 1018.8
20260905134510 70 222 0.0 1.0 0.00 0.00 0.00 46 1018.7
20260905134006 69 214 0.0 2.0 0.00 0.00 0.00 49 1018.7
20260905133506 68 214 0.0 3.0 0.00 0.00 0.00 50 1018.7
20260905133011 67 214 0.0 3.0 0.00 0.00 0.00 51 1018.7
20260905132509 66 214 2.0 3.0 0.00 0.00 0.00 51 1018.6
20260905132009 65 214 0.0 2.0 0.00 0.00 0.00 54 1018.7
20260905131509 64 214 0.0 3.0 0.00 0.00 0.00 54 1018.6
20260905131009 64 214 1.0 3.0 0.00 0.00 0.00 54 1018.6
20260905130508 63 231 1.0 2.0 0.00 0.00 0.00 54 1018.5
20260905130009 63 231 0.0 2.0 0.00 0.00 0.00 54 1018.5
20260905125508 63 231 0.0 0.0 0.00 0.00 0.00 55 1018.3
20260905125008 62 231 0.0 3.0 0.00 0.00 0.00 55 1018.2
20260905124515 62 231 0.0 3.0 0.00 0.00 0.00 55 1018.2
20260905124009 62 231 2.0 3.0 0.00 0.00 0.00 55 1018.2
20260905123511 62 231 1.0 2.0 0.00 0.00 0.00 55 1018.2
20260905123009 61 231 0.0 1.0 0.00 0.00 0.00 56 1018.1
20260905122509 62 231 0.0 2.0 0.00 0.00 0.00 55 1018.1
20260905122009 62 231 0.0 2.0 0.00 0.00 0.00 54 1018.1
20260905121514 62 231 0.0 1.0 0.00 0.00 0.00 54 1018.1
20260905121017 63 231 0.0 1.0 0.00 0.00 0.00 53 1018.2
20260905120515 63 231 0.0 0.0 0.00 0.00 0.00 53 1018.2
20260905120012 63 231 0.0 0.0 0.00 0.00 0.00 53 1018.0
20260905115511 64 231 0.0 0.0 0.00 0.00 0.00 51 1017.9
20260905115011 64 231 0.0 2.0 0.00 0.00 0.00 51 1017.9
20260905114515 64 231 0.0 3.0 0.00 0.00 0.00 51 1017.9
20260905114010 64 231 1.0 3.0 0.00 0.00 0.00 51 1017.9
20260905113510 64 231 0.0 3.0 0.00 0.00 0.00 52 1017.9
20260905113015 63 231 0.0 3.0 0.00 0.00 0.00 52 1017.9
20260905112515 63 231 0.0 2.0 0.00 0.00 0.00 54 1017.9
20260905112014 63 231 0.0 2.0 0.00 0.00 0.00 55 1017.8
20260905111514 63 231 0.0 2.0 0.00 0.00 0.00 56 1017.8
20260905111013 63 231 1.0 2.0 0.00 0.00 0.00 57 1017.8
20260905110512 63 231 0.0 0.0 0.00 0.00 0.00 57 1017.8
20260905110017 63 231 0.0 0.0 0.00 0.00 0.00 57 1017.8
20260905105519 64 231 0.0 1.0 0.00 0.00 0.00 56 1017.7
20260905105016 64 231 0.0 2.0 0.00 0.00 0.00 56 1017.7
20260905104516 63 231 1.0 3.0 0.00 0.00 0.00 57 1017.7
20260905104019 63 231 1.0 3.0 0.00 0.00 0.00 58 1017.7
20260905103515 62 231 1.0 3.0 0.00 0.00 0.00 60 1017.7
20260905103016 62 231 0.0 2.0 0.00 0.00 0.00 59 1017.7
20260905102517 62 231 0.0 1.0 0.00 0.00 0.00 59 1017.8
20260905102014 62 231 0.0 0.0 0.00 0.00 0.00 59 1017.7
20260905101521 62 231 0.0 0.0 0.00 0.00 0.00 58 1017.8
20260905101019 62 231 0.0 0.0 0.00 0.00 0.00 59 1017.8
20260905100519 63 231 0.0 0.0 0.00 0.00 0.00 58 1017.7
20260905100017 63 231 0.0 0.0 0.00 0.00 0.00 56 1017.7
20260905095516 64 231 0.0 0.0 0.00 0.00 0.00 56 1017.7
20260905095019 64 231 0.0 2.0 0.00 0.00 0.00 55 1017.7
20260905094519 64 231 0.0 2.0 0.00 0.00 0.00 54 1017.7
20260905094016 65 231 1.0 2.0 0.00 0.00 0.00 52 1017.5
20260905093515 67 231 0.0 2.0 0.00 0.00 0.00 49 1017.5
20260905093017 67 231 0.0 2.0 0.00 0.00 0.00 49 1017.5
20260905092515 67 231 0.0 3.0 0.00 0.00 0.00 49 1017.5
20260905092018 67 231 1.0 3.0 0.00 0.00 0.00 48 1017.5
20260905091515 67 231 0.0 4.0 0.00 0.00 0.00 48 1017.5
20260905091014 68 231 1.0 4.0 0.00 0.00 0.00 47 1017.4
20260905090514 68 233 1.0 3.0 0.00 0.00 0.00 46 1017.3
20260905090024 68 235 0.0 0.0 0.00 0.00 0.00 46 1017.2
20260905085517 69 235 0.0 0.0 0.00 0.00 0.00 44 1017.1
20260905085017 69 235 0.0 2.0 0.00 0.00 0.00 43 1017.0
20260905084516 69 235 0.0 4.0 0.00 0.00 0.00 43 1017.0
20260905084016 70 235 2.0 7.0 0.00 0.00 0.00 42 1017.0
20260905083515 70 235 3.0 8.0 0.00 0.00 0.00 42 1016.9
20260905083014 69 240 4.0 8.0 0.00 0.00 0.00 43 1017.0
20260905082514 69 223 3.0 8.0 0.00 0.00 0.00 45 1016.9
20260905082016 69 221 5.0 8.0 0.00 0.00 0.00 46 1016.9
20260905081519 69 214 4.0 8.0 0.00 0.00 0.00 46 1017.0
20260905081018 69 210 5.0 8.0 0.00 0.00 0.00 46 1017.0
20260905080518 69 198 4.0 6.0 0.00 0.00 0.00 47 1016.9
20260905080019 68 197 4.0 6.0 0.00 0.00 0.00 47 1017.0
20260905075518 67 203 3.0 5.0 0.00 0.00 0.00 49 1017.0
20260905075017 68 203 2.0 4.0 0.00 0.00 0.00 49 1016.9
20260905074525 69 203 2.0 5.0 0.00 0.00 0.00 48 1017.0
20260905074022 68 203 3.0 6.0 0.00 0.00 0.00 49 1017.1
20260905073528 68 201 4.0 6.0 0.00 0.00 0.00 50 1017.1
20260905073023 68 179 3.0 5.0 0.00 0.00 0.00 50 1017.0
20260905072522 69 161 2.0 4.0 0.00 0.00 0.00 49 1017.0
20260905072025 69 160 1.0 3.0 0.00 0.00 0.00 48 1017.0
20260905071519 70 160 1.0 3.0 0.00 0.00 0.00 48 1017.2
20260905071018 70 160 2.0 3.0 0.00 0.00 0.00 48 1017.1
20260905070517 70 160 1.0 2.0 0.00 0.00 0.00 48 1017.1
20260905070024 69 160 0.0 2.0 0.00 0.00 0.00 49 1017.1
20260905065523 70 160 0.0 2.0 0.00 0.00 0.00 49 1017.0
20260905065020 71 160 0.0 0.0 0.00 0.00 0.00 47 1017.0
20260905064523 71 160 0.0 2.0 0.00 0.00 0.00 47 1016.9
20260905064024 71 160 0.0 3.0 0.00 0.00 0.00 46 1016.8
20260905063522 71 160 1.0 5.0 0.00 0.00 0.00 46 1016.8
20260905063023 72 160 3.0 5.0 0.00 0.00 0.00 45 1016.8
20260905062521 74 156 0.0 2.0 0.00 0.00 0.00 45 1016.7
20260905062020 74 156 0.0 3.0 0.00 0.00 0.00 44 1016.8
20260905061534 74 156 0.0 4.0 0.00 0.00 0.00 43 1016.8
20260905061021 75 157 1.0 4.0 0.00 0.00 0.00 42 1016.8
20260905060521 75 157 0.0 5.0 0.00 0.00 0.00 42 1016.7
20260905060022 75 160 1.0 5.0 0.00 0.00 0.00 42 1016.6
20260905055526 75 136 2.0 5.0 0.00 0.00 0.00 42 1016.6
20260905055021 75 110 1.0 5.0 0.00 0.00 0.00 42 1016.7
20260905054531 74 108 1.0 5.0 0.00 0.00 0.00 43 1016.6
20260905054024 73 86 2.0 4.0 0.00 0.00 0.00 44 1016.6
20260905053524 73 70 1.0 4.0 0.00 0.00 0.00 44 1016.6
20260905053024 74 69 2.0 4.0 0.00 0.00 0.00 43 1016.6
20260905052523 73 66 0.0 3.0 0.00 0.00 0.00 42 1016.6
20260905052024 73 66 1.0 3.0 0.00 0.00 0.00 42 1016.6
20260905051507 73 66 0.0 2.0 0.00 0.00 0.00 42 1016.6
20260905051003 72 66 0.0 2.0 0.00 0.00 0.00 43 1016.7
20260905050503 72 66 0.0 0.0 0.00 0.00 0.00 42 1016.8
20260905050023 72 66 0.0 1.0 0.00 0.00 0.00 42 1016.7
20260905045527 72 66 0.0 1.0 0.00 0.00 0.00 42 1016.8
20260905045022 73 66 0.0 2.0 0.00 0.00 0.00 42 1016.7
20260905044528 72 66 0.0 2.0 0.00 0.00 0.00 41 1016.7
20260905044022 72 66 0.0 3.0 0.00 0.00 0.00 40 1016.8
20260905043522 71 66 0.0 3.0 0.00 0.00 0.00 41 1016.7
20260905043025 71 66 0.0 3.0 0.00 0.00 0.00 44 1016.8
20260905042529 71 66 0.0 2.0 0.00 0.00 0.00 45 1016.8
20260905042025 72 66 0.0 2.0 0.00 0.00 0.00 46 1016.6
20260905041536 74 66 0.0 2.0 0.00 0.00 0.00 41 1016.6
20260905041023 75 66 0.0 1.0 0.00 0.00 0.00 38 1016.6
20260905040524 76 66 0.0 1.0 0.00 0.00 0.00 37 1016.5